Nikolski, AK NWLON current weather conditions

sailwx.info

Wind from 131 at 24 knots gusting 28

Air temperature 5.6° C

Last reported at 2019-Dec-13 22:30 UTC.
Time now 2019-Dec-13 23:25 UTC

Location: N 52°56' W 168°52'.
View on Google Maps.

See reports from other nearby stations

  
Tides and Currents Weather Stations Pressure Air Temp Water Temp Dewpoint Dewpoint Depression Visibility Wind Speed Wind Dir Waves Ship Positions
date/time (UTC)wind fromknots sea level pressurealtimeterstation pressurevisibilityair tempwater tempwave heightnotes
2019-Dec-13 22:30 131 24 gusting 28 5.6
2019-Dec-13 22:24 131 22 gusting 30 5.6
2019-Dec-13 22:18 124 26 gusting 32 5.6
2019-Dec-13 22:12 127 26 gusting 31 4.4
2019-Dec-13 22:06 119 29 gusting 37 4.4
2019-Dec-13 22:00 117 33 gusting 36 4.4
2019-Dec-13 21:54 118 29 gusting 37 3.9
2019-Dec-13 21:48 117 32 gusting 38 3.9
2019-Dec-13 21:42 114 29 gusting 34 3.9
2019-Dec-13 21:36 115 29 gusting 37 3.9
2019-Dec-13 21:30 115 31 gusting 36 3.9
2019-Dec-13 21:24 112 28 gusting 38 4.4
2019-Dec-13 21:18 116 28 gusting 37 3.3
2019-Dec-13 21:12 118 33 gusting 38 3.3
2019-Dec-13 21:06 117 29 gusting 39 2.8
2019-Dec-13 21:00 118 31 gusting 40 3.9
2019-Dec-13 20:54 118 30 gusting 39 4.4
2019-Dec-13 20:48 119 31 gusting 38 4.4
2019-Dec-13 20:42 116 31 gusting 37 4.4
2019-Dec-13 20:36 116 26 gusting 35 4.4
2019-Dec-13 20:30 115 29 gusting 35 3.9
2019-Dec-13 20:24 120 31 gusting 39 4.4
2019-Dec-13 20:18 119 32 gusting 37 3.9
2019-Dec-13 20:12 119 32 gusting 35 3.9
2019-Dec-13 20:06 119 28 gusting 38 3.9
2019-Dec-13 20:00 115 27 gusting 36 3.3
2019-Dec-13 19:54 118 29 gusting 36 2.8
2019-Dec-13 19:48 116 30 gusting 34 2.8
2019-Dec-13 19:42 113 27 gusting 33 2.2
2019-Dec-13 19:36 115 30 gusting 36 2.2
2019-Dec-13 19:30 115 29 gusting 33 1.7
2019-Dec-13 19:24 116 27 gusting 35 2.2
2019-Dec-13 19:18 115 27 gusting 35 2.2
2019-Dec-13 19:12 117 29 gusting 35 2.2
2019-Dec-13 19:06 117 27 gusting 37 1.7
2019-Dec-13 19:00 118 29 gusting 37 1.7
2019-Dec-13 18:54 114 27 gusting 31 1.1
2019-Dec-13 18:48 116 26 gusting 33 1.1
2019-Dec-13 18:42 118 29 gusting 35 1.1
2019-Dec-13 18:36 120 26 gusting 33 0.6
2019-Dec-13 18:30 117 27 gusting 33 0.6
2019-Dec-13 18:24 117 26 gusting 31 -0.0
2019-Dec-13 18:18 117 26 gusting 31 -0.6
2019-Dec-13 18:12 117 24 gusting 27 -0.6
2019-Dec-13 18:06 112 21 gusting 26 -0.6
2019-Dec-13 18:00 115 22 gusting 29 -0.6
2019-Dec-13 17:54 113 21 gusting 24 -0.6
2019-Dec-13 17:48 112 22 gusting 27 -0.6
2019-Dec-13 17:42 113 23 gusting 26 -0.6
2019-Dec-13 17:36 118 22 gusting 26 -0.6
2019-Dec-13 17:30 114 22 gusting 27 -0.6
2019-Dec-13 17:24 119 24 gusting 30 -1.1
2019-Dec-13 17:18 122 24 gusting 28 -0.6
2019-Dec-13 17:12 129 25 gusting 29 -0.6
2019-Dec-13 17:06 125 25 gusting 27 -0.6
2019-Dec-13 17:00 116 23 gusting 29 -0.0
2019-Dec-13 16:54 122 22 gusting 26 0.6
2019-Dec-13 16:48 119 21 gusting 27 0.6
2019-Dec-13 16:42 129 21 gusting 26 0.6
2019-Dec-13 16:36 128 19 gusting 26 1.1
2019-Dec-13 16:30 117 19 gusting 25 0.6
2019-Dec-13 16:24 124 18 gusting 26 0.6
2019-Dec-13 16:18 131 22 gusting 30 0.6
2019-Dec-13 16:12 134 24 gusting 26 1.1
2019-Dec-13 16:06 135 19 gusting 26 1.7
2019-Dec-13 16:00 127 19 gusting 21 1.7
2019-Dec-13 15:54 124 19 gusting 22 1.7
2019-Dec-13 15:48 127 17 gusting 22 1.7
2019-Dec-13 15:42 125 19 gusting 23 1.7
2019-Dec-13 15:36 132 17 gusting 22 1.7
2019-Dec-13 15:30 133 19 gusting 20 1.7
2019-Dec-13 15:24 138 18 gusting 19 1.7
2019-Dec-13 15:18 140 15 gusting 19 1.1
2019-Dec-13 15:12 140 15 gusting 19 1.1
2019-Dec-13 15:06 134 17 gusting 22 1.7
2019-Dec-13 15:00 125 13 gusting 16 1.1
2019-Dec-13 14:54 131 13 gusting 15 1.1
2019-Dec-13 14:48 138 13 gusting 15 1.1
2019-Dec-13 14:42 135 13 gusting 14 1.1
2019-Dec-13 14:36 137 12 gusting 16 0.6
2019-Dec-13 14:30 130 12 gusting 13 0.6
2019-Dec-13 14:24 137 9 gusting 13 0.6
2019-Dec-13 14:18 139 12 gusting 14 0.6
2019-Dec-13 14:12 143 13 gusting 16 0.6
2019-Dec-13 14:06 143 15 gusting 19 0.6
2019-Dec-13 14:00 150 15 gusting 21 0.6
2019-Dec-13 13:54 152 15 gusting 19 1.1
2019-Dec-13 13:48 153 12 gusting 14 0.6
2019-Dec-13 13:42 154 11 gusting 16 1.1
2019-Dec-13 13:36 163 12 gusting 14 1.1
2019-Dec-13 13:30 170 10 gusting 14 1.1
2019-Dec-13 13:24 175 9 gusting 13 1.1
2019-Dec-13 13:18 175 11 gusting 14 0.6
2019-Dec-13 13:12 175 12 gusting 14 1.1
2019-Dec-13 13:06 169 10 gusting 13 1.1
2019-Dec-13 13:00 159 8 gusting 13 0.6
2019-Dec-13 12:54 141 10 gusting 13 1.1
2019-Dec-13 12:48 136 11 gusting 13 0.6
2019-Dec-13 12:42 124 11 gusting 13 0.6
2019-Dec-13 12:36 128 10 gusting 12 0.6
2019-Dec-13 12:30 128 10 gusting 11 0.6
2019-Dec-13 12:24 132 9 gusting 10 0.6
2019-Dec-13 12:18 143 7 gusting 9 -0.0
2019-Dec-13 12:12 107 3 gusting 4 -1.1
2019-Dec-13 12:06 108 2 gusting 3 -1.1
2019-Dec-13 12:00 116 1 gusting 2 -1.1
2019-Dec-13 11:54 095 1 gusting 3 -1.7
2019-Dec-13 11:48 122 2 gusting 4 -1.7
2019-Dec-13 11:42 120 3 gusting 4 -1.7
2019-Dec-13 11:36 140 2 gusting 3 -1.1
2019-Dec-13 11:30 136 2 gusting 4 -1.7
2019-Dec-13 11:24 148 3 gusting 4 -1.7
2019-Dec-13 11:18 140 3 gusting 4 -1.7
2019-Dec-13 11:12 145 3 gusting 4 -1.7
2019-Dec-13 11:06 147 4 gusting 5 -1.7
2019-Dec-13 11:00 159 3 gusting 3 -1.7
2019-Dec-13 10:54 166 2 gusting 3 -1.7
2019-Dec-13 10:42 153 3 gusting 5 -2.8
2019-Dec-13 10:36 153 4 gusting 5 -3.3
2019-Dec-13 10:30 151 3 gusting 3 -3.3
2019-Dec-13 10:24 144 2 gusting 3 -2.8
2019-Dec-13 10:18 129 2 gusting 3 -2.8
2019-Dec-13 10:12 138 2 gusting 2 -2.8
2019-Dec-13 10:06 145 1 gusting 3 -1.1
2019-Dec-13 10:00 178 3 gusting 4 -0.0
2019-Dec-13 09:54 163 3 gusting 5 -1.1
2019-Dec-13 09:48 212 4 gusting 6 -0.0
2019-Dec-13 09:42 211 6 gusting 7 -0.0
2019-Dec-13 09:36 232 4 gusting 5 -0.0
2019-Dec-13 09:30 238 5 gusting 5 -0.0
2019-Dec-13 09:24 217 5 gusting 6 -0.0
2019-Dec-13 09:18 223 5 gusting 7 -0.0
2019-Dec-13 09:12 209 6 gusting 8 -0.0
2019-Dec-13 09:06 241 6 gusting 8 0.6
2019-Dec-13 09:00 248 6 gusting 8 0.6
2019-Dec-13 08:54 227 5 gusting 6 -0.0
2019-Dec-13 08:48 214 6 gusting 7 -0.0
2019-Dec-13 08:42 213 6 gusting 8 -0.0
2019-Dec-13 08:36 240 7 gusting 11 0.6
2019-Dec-13 08:30 245 7 gusting 9 0.6
2019-Dec-13 08:24 248 8 gusting 11 0.6
2019-Dec-13 08:18 256 8 gusting 12 0.6
2019-Dec-13 08:12 249 10 gusting 13 0.6
2019-Dec-13 08:06 250 11 gusting 14 0.6
2019-Dec-13 08:00 249 10 gusting 13 0.6
2019-Dec-13 07:54 265 9 gusting 13 1.1
2019-Dec-13 07:48 270 9 gusting 13 1.1
2019-Dec-13 07:42 259 8 gusting 13 0.6
2019-Dec-13 07:36 247 11 gusting 13 0.6
2019-Dec-13 07:30 245 11 gusting 13 0.6
2019-Dec-13 07:24 241 11 gusting 13 0.6
2019-Dec-13 07:18 251 13 gusting 17 0.6
2019-Dec-13 07:12 251 11 gusting 13 0.6
2019-Dec-13 07:06 248 8 gusting 12 0.6
2019-Dec-13 07:00 260 9 gusting 16 0.6
2019-Dec-13 06:54 265 14 gusting 17 1.1
2019-Dec-13 06:48 253 9 gusting 12 0.6
2019-Dec-13 06:42 247 9 gusting 13 0.6
2019-Dec-13 06:36 261 9 gusting 12 1.1
2019-Dec-13 06:30 267 12 gusting 13 1.1
2019-Dec-13 06:24 263 12 gusting 16 1.1
2019-Dec-13 06:18 262 11 gusting 15 0.6
2019-Dec-13 06:12 259 13 gusting 14 1.1
2019-Dec-13 06:06 261 13 gusting 17 1.1
2019-Dec-13 06:00 270 11 gusting 18 0.6
2019-Dec-13 05:54 267 14 gusting 17 1.1
2019-Dec-13 05:48 270 13 gusting 17 0.6
2019-Dec-13 05:42 279 14 gusting 18 0.6
2019-Dec-13 05:36 274 15 gusting 17 0.6
2019-Dec-13 05:30 293 13 gusting 14 0.6
2019-Dec-13 05:24 287 13 gusting 19 0.6
2019-Dec-13 05:18 291 17 gusting 20 0.6
2019-Dec-13 05:12 296 16 gusting 19 0.6
2019-Dec-13 05:06 296 17 gusting 22 0.6
2019-Dec-13 05:00 294 11 gusting 18 1.1
2019-Dec-13 04:48 264 13 gusting 16 1.1
2019-Dec-13 04:36 261 9 gusting 14 0.6
2019-Dec-13 04:30 272 12 gusting 14 0.6
2019-Dec-13 04:24 294 13 gusting 19 -0.0
2019-Dec-13 04:18 296 15 gusting 19 -0.0
2019-Dec-13 04:12 297 18 gusting 23 -0.0
2019-Dec-13 04:06 273 18 gusting 24 1.1
2019-Dec-13 04:00 263 12 gusting 15 0.6
2019-Dec-13 03:54 264 13 gusting 19 0.6
2019-Dec-13 03:48 281 15 gusting 19 1.1
2019-Dec-13 03:42 276 16 gusting 20 0.6
2019-Dec-13 03:36 278 16 gusting 21 0.6
2019-Dec-13 03:30 268 14 gusting 18 0.6
2019-Dec-13 03:24 262 15 gusting 19 0.6
2019-Dec-13 03:18 272 17 gusting 20 0.6
2019-Dec-13 03:12 263 19 gusting 24 0.6
2019-Dec-13 03:06 263 20 gusting 26 0.6
2019-Dec-13 03:00 272 19 gusting 22 1.1
2019-Dec-13 02:54 277 18 gusting 22 1.1
2019-Dec-13 02:48 273 19 gusting 25 1.1
2019-Dec-13 02:42 270 18 gusting 22 0.6
2019-Dec-13 02:36 267 16 gusting 21 0.6
2019-Dec-13 02:30 270 17 gusting 21 0.6
2019-Dec-13 02:24 272 17 gusting 20 0.6
2019-Dec-13 02:18 273 16 gusting 22 0.6
2019-Dec-13 02:12 270 16 gusting 21 0.6
2019-Dec-13 02:06 274 19 gusting 23 0.6
2019-Dec-13 02:00 262 19 gusting 27 0.6
2019-Dec-13 01:54 273 22 gusting 26 0.6
2019-Dec-13 01:48 274 26 gusting 30 0.6
2019-Dec-13 01:24 263 16 gusting 22 1.1
2019-Dec-13 01:18 267 15 gusting 21 1.7
2019-Dec-13 01:12 267 19 gusting 22 1.1
2019-Dec-13 01:06 264 16 gusting 20 1.1
2019-Dec-13 01:00 267 19 gusting 25 1.1
2019-Dec-13 00:54 267 21 gusting 24 1.1
2019-Dec-13 00:48 273 19 gusting 22 1.1
2019-Dec-13 00:42 279 12 gusting 22 1.1
2019-Dec-13 00:36 291 19 gusting 24 0.6
2019-Dec-13 00:30 308 14 gusting 19 1.1
2019-Dec-13 00:24 304 15 gusting 18 0.6
2019-Dec-13 00:18 299 17 gusting 24 1.1
2019-Dec-13 00:12 284 15 gusting 20 1.1
2019-Dec-13 00:06 290 13 gusting 18 1.1
2019-Dec-13 00:00 299 13 gusting 15 0.6
2019-Dec-12 23:54 299 14 gusting 18 0.6
2019-Dec-12 23:42 275 16 gusting 22 0.6
2019-Dec-12 23:36 268 19 gusting 24 -0.0
2019-Dec-12 23:30 269 19 gusting 22 -0.6
2019-Dec-12 23:24 271 18 gusting 21 -0.6
2019-Dec-12 23:18 291 13 gusting 16 -1.1
2019-Dec-12 23:12 293 13 gusting 17 -1.7
2019-Dec-12 23:06 299 13 gusting 19 -2.2
2019-Dec-12 23:00 304 14 gusting 18 -2.2
2019-Dec-12 22:54 305 17 gusting 21 -2.2
2019-Dec-12 22:48 298 19 gusting 22 -2.2
2019-Dec-12 22:42 299 20 gusting 24 -1.7
2019-Dec-12 22:36 296 16 gusting 21 -2.8
2019-Dec-12 22:30 299 19 gusting 26 -2.2
2019-Dec-12 22:24 284 13 gusting 20 -1.7
2019-Dec-12 22:18 275 16 gusting 20 -2.2
2019-Dec-12 22:12 276 16 gusting 19 -2.2
2019-Dec-12 22:06 274 16 gusting 19 -1.7
2019-Dec-12 22:00 276 14 gusting 16 -2.2
2019-Dec-12 21:54 290 15 gusting 18 -2.2
2019-Dec-12 21:48 293 13 gusting 17 -2.2
2019-Dec-12 21:42 298 14 gusting 19 -2.8
2019-Dec-12 21:36 295 17 gusting 21 -2.8
2019-Dec-12 21:30 292 19 gusting 22 -2.8
2019-Dec-12 21:24 291 20 gusting 25 -2.8
2019-Dec-12 21:18 303 19 gusting 28 -3.3
2019-Dec-12 21:12 295 26 gusting 31 -2.8
2019-Dec-12 21:06 292 17 gusting 20 -2.2
2019-Dec-12 21:00 298 15 gusting 19 -2.2
2019-Dec-12 20:54 300 14 gusting 19 -2.2
2019-Dec-12 20:48 309 15 gusting 19 -2.8
2019-Dec-12 20:42 295 18 gusting 21 -2.2
2019-Dec-12 20:36 291 19 gusting 22 -2.2
2019-Dec-12 20:30 292 19 gusting 23 -2.2
2019-Dec-12 20:24 296 21 gusting 29 -2.8
2019-Dec-12 20:18 294 28 gusting 31 -2.8
2019-Dec-12 20:12 293 27 gusting 31 -2.8
2019-Dec-12 20:06 278 15 gusting 19 -2.8
2019-Dec-12 20:00 281 16 gusting 21 -2.8
2019-Dec-12 19:54 280 18 gusting 22 -2.8
2019-Dec-12 19:48 282 17 gusting 20 -2.8
2019-Dec-12 19:42 276 20 gusting 24 -2.8
2019-Dec-12 19:36 280 21 gusting 25 -2.8
2019-Dec-12 19:30 287 19 gusting 26 -2.8
2019-Dec-12 19:24 288 22 gusting 31 -2.8
2019-Dec-12 19:18 284 22 gusting 27 -2.2
2019-Dec-12 19:12 289 19 gusting 24 -2.2
2019-Dec-12 19:06 274 18 gusting 21 -2.2
2019-Dec-12 19:00 279 15 gusting 19 -2.8
2019-Dec-12 18:54 276 16 gusting 19 -2.8
2019-Dec-12 18:48 278 16 gusting 19 -2.8
2019-Dec-12 18:42 282 16 gusting 19 -2.8
2019-Dec-12 18:36 291 16 gusting 19 -2.8
2019-Dec-12 18:30 280 15 gusting 19 -3.3
2019-Dec-12 18:24 271 16 gusting 19 -3.3
2019-Dec-12 18:18 279 17 gusting 22 -3.3
2019-Dec-12 18:12 274 21 gusting 26 -3.3
2019-Dec-12 18:06 279 22 gusting 27 -3.3
2019-Dec-12 18:00 277 16 gusting 23 -2.8
2019-Dec-12 17:54 270 14 gusting 19 -2.8
2019-Dec-12 17:48 276 16 gusting 19 -2.8
2019-Dec-12 17:42 273 17 gusting 19 -3.3
2019-Dec-12 17:36 272 15 gusting 19 -3.9
2019-Dec-12 17:30 262 11 gusting 17 -4.4
2019-Dec-12 17:24 266 14 gusting 19 -4.4
2019-Dec-12 17:18 259 15 gusting 22 -4.4
2019-Dec-12 17:12 270 23 gusting 29 -4.4
2019-Dec-12 17:06 273 26 gusting 28 -3.9
2019-Dec-12 17:00 262 13 gusting 19 -3.3
2019-Dec-12 16:54 259 13 gusting 16 -3.3
2019-Dec-12 16:48 261 13 gusting 15 -3.3
2019-Dec-12 16:42 263 14 gusting 18 -3.3
2019-Dec-12 16:36 280 14 gusting 19 -3.3
2019-Dec-12 16:30 280 14 gusting 18 -3.3
2019-Dec-12 16:24 278 11 gusting 13 -3.3
2019-Dec-12 16:18 282 11 gusting 13 -3.3
2019-Dec-12 16:12 295 13 gusting 14 -3.9
2019-Dec-12 16:06 298 12 gusting 14 -3.9
2019-Dec-12 16:00 291 13 gusting 16 -3.9
2019-Dec-12 15:54 276 11 gusting 22 -4.4
2019-Dec-12 15:48 281 19 gusting 26 -4.4
2019-Dec-12 15:42 269 14 gusting 20 -2.8
2019-Dec-12 15:36 265 13 gusting 16 -2.8
2019-Dec-12 15:30 273 14 gusting 18 -2.8
2019-Dec-12 15:24 271 14 gusting 16 -2.8
2019-Dec-12 15:18 274 13 gusting 15 -2.8
2019-Dec-12 15:12 244 6 gusting 7 -3.3
2019-Dec-12 15:06 247 6 gusting 6 -3.9
2019-Dec-12 15:00 251 6 gusting 6 -3.9
2019-Dec-12 14:54 254 6 gusting 7 -3.9
2019-Dec-12 14:48 254 6 gusting 10 -3.9
2019-Dec-12 14:42 253 8 gusting 12 -3.9
2019-Dec-12 14:36 252 6 gusting 10 -3.3
2019-Dec-12 14:30 256 9 gusting 11 -3.3
2019-Dec-12 14:24 269 11 gusting 12 -3.3
2019-Dec-12 14:18 281 11 gusting 13 -3.3
2019-Dec-12 14:12 274 12 gusting 13 -3.3
2019-Dec-12 14:06 277 10 gusting 13 -3.3
2019-Dec-12 14:00 285 9 gusting 14 -3.3
2019-Dec-12 13:54 279 9 gusting 12 -3.3
2019-Dec-12 13:48 282 10 gusting 13 -3.3
2019-Dec-12 13:42 282 9 gusting 13 -3.3
2019-Dec-12 13:36 277 12 gusting 13 -3.3
2019-Dec-12 13:30 282 11 gusting 14 -3.3
2019-Dec-12 13:24 271 8 gusting 13 -3.3
2019-Dec-12 13:18 275 11 gusting 16 -3.3
2019-Dec-12 13:12 259 11 gusting 13 -3.3
2019-Dec-12 13:06 253 11 gusting 14 -3.3
2019-Dec-12 13:00 283 9 gusting 13 -3.3
2019-Dec-12 12:54 289 12 gusting 14 -3.3
2019-Dec-12 12:48 277 13 gusting 15 -3.3
2019-Dec-12 12:42 280 10 gusting 13 -3.3
2019-Dec-12 12:36 280 10 gusting 15 -3.3
2019-Dec-12 12:30 289 11 gusting 15 -3.3
2019-Dec-12 12:24 291 13 gusting 15 -3.3
2019-Dec-12 12:18 278 10 gusting 11 -3.3
2019-Dec-12 12:12 292 11 gusting 13 -3.3
2019-Dec-12 12:06 295 10 gusting 13 -3.3
2019-Dec-12 12:00 273 9 gusting 13 -3.9
2019-Dec-12 11:54 279 12 gusting 14 -3.9
2019-Dec-12 11:48 281 11 gusting 13 -3.9
2019-Dec-12 11:42 279 10 gusting 13 -3.9
2019-Dec-12 11:36 276 10 gusting 12 -3.9
2019-Dec-12 11:30 279 9 gusting 10 -3.9
2019-Dec-12 11:24 282 8 gusting 11 -3.9
2019-Dec-12 11:18 293 10 gusting 12 -3.3
2019-Dec-12 11:12 289 11 gusting 13 -3.3
2019-Dec-12 11:06 271 9 gusting 11 -3.9
2019-Dec-12 11:00 283 9 gusting 13 -3.9
2019-Dec-12 10:54 279 10 gusting 13 -3.3
2019-Dec-12 10:48 283 10 gusting 13 -3.3
2019-Dec-12 10:42 292 9 gusting 11 -3.3
2019-Dec-12 10:36 281 7 gusting 12 -3.9
2019-Dec-12 10:30 288 11 gusting 13 -3.9
2019-Dec-12 10:24 294 11 gusting 13 -3.9
2019-Dec-12 10:18 296 12 gusting 15 -3.9
2019-Dec-12 10:12 295 12 gusting 14 -3.9
2019-Dec-12 10:06 293 13 gusting 14 -3.9
2019-Dec-12 10:00 296 12 gusting 14 -4.4
2019-Dec-12 09:54 295 12 gusting 14 -3.9
2019-Dec-12 09:48 307 13 gusting 16 -4.4
2019-Dec-12 09:42 309 14 gusting 17 -4.4
2019-Dec-12 09:36 304 15 gusting 19 -4.4
2019-Dec-12 09:30 285 13 gusting 19 -3.9
2019-Dec-12 09:24 270 14 gusting 18 -3.9
2019-Dec-12 09:18 272 16 gusting 19 -3.9
2019-Dec-12 09:12 266 14 gusting 18 -3.9
2019-Dec-12 09:06 271 16 gusting 18 -3.9
2019-Dec-12 09:00 262 16 gusting 21 -3.3
2019-Dec-12 08:42 290 9 gusting 11 -2.8
2019-Dec-12 08:36 301 7 gusting 9 -2.8
2019-Dec-12 08:30 286 8 gusting 9 -2.8
2019-Dec-12 08:24 302 7 gusting 9 -0.0
2019-Dec-12 08:18 302 3 gusting 5 0.6
2019-Dec-12 08:12 326 3 gusting 4 0.6
2019-Dec-12 08:06 320 5 gusting 5 0.6
2019-Dec-12 08:00 314 4 gusting 6 0.6
2019-Dec-12 07:54 305 5 gusting 6 0.6
2019-Dec-12 07:48 308 5 gusting 7 0.6
2019-Dec-12 07:42 307 6 gusting 9 0.6
2019-Dec-12 07:36 319 8 gusting 12 0.6
2019-Dec-12 07:30 318 11 gusting 14 0.6
2019-Dec-12 07:24 312 9 gusting 13 0.6
2019-Dec-12 07:18 315 0 gusting 3 -0.6
2019-Dec-12 06:54 123 3 gusting 5 -1.1
2019-Dec-12 06:48 148 4 gusting 5 -1.1
2019-Dec-12 06:42 059 5 gusting 6 -0.6
2019-Dec-12 06:36 020 4 gusting 6 -0.0
2019-Dec-12 06:30 076 0 gusting 3 -0.6
2019-Dec-12 06:24 021 4 gusting 9 -0.6
2019-Dec-12 06:18 034 6 gusting 6 -0.6
2019-Dec-12 06:12 034 6 gusting 6 -0.6
2019-Dec-12 06:06 041 6 gusting 6 -0.6
2019-Dec-12 06:00 022 6 gusting 9 -0.6
2019-Dec-12 05:54 004 9 gusting 13 -1.7
2019-Dec-12 05:48 343 12 gusting 13 -1.7
2019-Dec-12 05:42 328 13 gusting 14 -1.1
2019-Dec-12 05:36 300 6 gusting 9 -1.1
2019-Dec-12 05:30 260 3 gusting 6 -1.1
2019-Dec-12 05:24 226 6 gusting 7 -0.0
2019-Dec-12 05:18 220 7 gusting 9 -0.0
2019-Dec-12 05:12 222 8 gusting 11 -0.6
2019-Dec-12 05:06 222 10 gusting 11 -0.6
2019-Dec-12 05:00 220 9 gusting 10 -0.6
2019-Dec-12 04:54 219 9 gusting 10 -0.6
2019-Dec-12 04:48 213 9 gusting 9 -0.6
2019-Dec-12 04:42 213 9 gusting 10 -0.6
2019-Dec-12 04:36 204 9 gusting 11 -0.6
2019-Dec-12 04:30 211 10 gusting 11 -0.6
2019-Dec-12 04:24 211 10 gusting 11 -0.6
2019-Dec-12 04:18 210 9 gusting 12 -0.6
2019-Dec-12 04:12 207 10 gusting 12 -0.6
2019-Dec-12 04:06 210 9 gusting 12 -0.0
2019-Dec-12 04:00 216 9 gusting 12 -0.6
2019-Dec-12 03:54 218 8 gusting 11 -0.6
2019-Dec-12 03:48 232 6 gusting 7 1.1
2019-Dec-12 03:42 220 6 gusting 6 1.1
2019-Dec-12 03:36 232 6 gusting 6 0.6
2019-Dec-12 03:30 242 5 gusting 6 0.6
2019-Dec-12 03:24 243 6 gusting 6 -0.0
2019-Dec-12 03:18 233 5 gusting 5 -0.6
2019-Dec-12 03:12 241 3 gusting 5 -0.6
2019-Dec-12 03:06 248 5 gusting 6 -0.6
2019-Dec-12 03:00 238 7 gusting 7 -0.0
2019-Dec-12 02:54 242 6 gusting 8 -0.0
2019-Dec-12 02:48 254 5 gusting 6 -0.0
2019-Dec-12 02:42 248 4 gusting 5 -0.0
2019-Dec-12 02:36 248 5 gusting 6 -0.0
2019-Dec-12 02:30 245 4 gusting 6 -0.0
2019-Dec-12 02:24 245 5 gusting 6 -0.0
2019-Dec-12 02:18 240 5 gusting 7 -0.0
2019-Dec-12 02:12 293 6 gusting 7 -0.0
2019-Dec-12 02:06 286 6 gusting 9 -0.0
2019-Dec-12 02:00 290 7 gusting 11 -0.0
2019-Dec-12 01:54 296 9 gusting 11 -0.0
2019-Dec-12 01:48 284 9 gusting 12 -0.0
2019-Dec-12 01:42 275 10 gusting 13 0.6
2019-Dec-12 01:36 264 7 gusting 10 0.6
2019-Dec-12 01:30 289 8 gusting 11 0.6
2019-Dec-12 01:24 275 9 gusting 11 0.6
2019-Dec-12 01:18 287 9 gusting 13 0.6
2019-Dec-12 01:12 287 11 gusting 14 0.6
2019-Dec-12 01:06 272 11 gusting 16 0.6
2019-Dec-12 01:00 271 12 gusting 16 0.6
2019-Dec-12 00:54 278 13 gusting 16 0.6
2019-Dec-12 00:48 270 12 gusting 17 0.6
2019-Dec-12 00:42 276 12 gusting 16 0.6
2019-Dec-12 00:36 267 13 gusting 14 0.6
2019-Dec-12 00:30 274 10 gusting 13 1.1
2019-Dec-12 00:24 270 10 gusting 13 0.6
2019-Dec-12 00:18 272 10 gusting 15 0.6
2019-Dec-12 00:12 280 9 gusting 13 0.6
2019-Dec-12 00:06 273 9 gusting 12 0.6
2019-Dec-12 00:00 276 11 gusting 13 0.6
2019-Dec-11 23:42 256 11 gusting 13 0.6
2019-Dec-11 23:36 259 10 gusting 13 0.6
2019-Dec-11 23:30 258 12 gusting 14 0.6
2019-Dec-11 23:24 267 11 gusting 15 0.6
2019-Dec-11 23:18 268 13 gusting 15 0.6
2019-Dec-11 23:12 270 12 gusting 14 0.6
2019-Dec-11 23:06 274 11 gusting 13 0.6
2019-Dec-11 23:00 259 6 gusting 10 0.6